Home > Weather > Sutton Coldfield > Past weeks

Flag for United Kingdom Weather for the Past 2 Weeks in Sutton Coldfield, England, United Kingdom

Now
46 °F

Partly sunny.


Feels Like: 41 °F
Forecast: N/A
Wind: 13 mph from Northwest

Location: Birmingham / Airport

Current Time: Feb 10, 2016 at 3:33:11 PM

Latest Report: Feb 10, 2016 at 3:20 PM


Visibility: N/A

Pressure: 29.47 "Hg

Humidity: 57%

Dew point: 32 °F

Location of Sutton ColdfieldLocation

Historic Weather in Sutton Coldfield — Graph

°F

Sutton Coldfield Temperature Yesterday

Maximum temperature yesterday: 45 °F (at 1:20 PM)
Minimum temperature yesterday: 36 °F (at 3:50 AM)
Average temperature yesterday: 39 °F

High & Low Weather Summary for the Past Weeks

 TemperatureHumidityPressure
High57 °F (Jan 27, 12:20 PM)100% (Jan 26, 7:20 PM)30.33 "Hg (Jan 26, 7:20 PM)
Low36 °F (Jan 28, 7:20 AM)53% (Feb 2, 12:20 PM)28.82 "Hg (Feb 8, 8:20 AM)
Average46 °F86%29.67 "Hg
* Reported Jan 26 2:20 PM — Feb 10 2:20 PM, Sutton Coldfield, Weather by CustomWeather, © 2016

Note: Actual official high and low records may vary slightly from our data, if they occured in-between our weather recording intervals... More about our weather records

Advertising

Sutton Coldfield Weather History for the Previous 24 Hours

 ConditionsComfort  
Time TempWeatherWind HumidityBarometerVisibility
2:20 PM
Wed, Feb 10
46 °FBroken clouds.15 mph57%29.47 "HgN/A
1:50 PM46 °FBroken clouds.15 mph62%29.47 "HgN/A
1:20 PM46 °FScattered clouds.17 mph66%29.45 "HgN/A
12:50 PM45 °FScattered clouds.13 mph71%29.45 "HgN/A
12:20 PM45 °FBroken clouds.13 mph76%29.45 "HgN/A
11:50 AM45 °FBroken clouds.15 mph81%29.45 "HgN/A
11:20 AM43 °FScattered clouds.14 mph87%29.42 "HgN/A
10:50 AM43 °FScattered clouds.14 mph87%29.42 "HgN/A
10:20 AM43 °FPartly sunny.9 mph87%29.42 "HgN/A
9:50 AM41 °FBroken clouds.10 mph93%29.39 "HgN/A
9:20 AM41 °FBroken clouds.10 mph93%29.39 "HgN/A
8:50 AM41 °FScattered showers. Broken clouds.12 mph93%29.36 "HgN/A
8:20 AM41 °FScattered showers. Broken clouds.9 mph93%29.36 "HgN/A
7:50 AM41 °FBroken clouds.9 mph93%29.33 "HgN/A
7:20 AM41 °FPartly cloudy.10 mph93%29.33 "HgN/A
6:50 AM41 °FPartly cloudy.8 mph93%29.30 "HgN/A
6:20 AM41 °FLight rain. Partly cloudy.9 mph93%29.30 "HgN/A
5:50 AM39 °FLight rain. Partly cloudy.9 mph100%29.30 "Hg5 mi
5:20 AM41 °FMostly cloudy.14 mph93%29.27 "HgN/A
4:50 AM39 °FPassing clouds.12 mph93%29.27 "HgN/A
4:20 AM41 °FOvercast.12 mph93%29.24 "HgN/A
3:50 AM39 °FRain. Mostly cloudy.9 mph100%29.24 "Hg6 mi
3:20 AM39 °FLight rain. Partly cloudy.9 mph93%29.24 "HgN/A
2:50 AM39 °FLight rain. Passing clouds.10 mph93%29.24 "HgN/A
2:20 AM39 °FPassing clouds.7 mph93%29.21 "HgN/A
1:50 AM39 °FPassing clouds.9 mph93%29.21 "HgN/A
1:20 AM39 °FPartly cloudy.9 mph93%29.21 "HgN/A
12:50 AM39 °FPartly cloudy.7 mph93%29.18 "HgN/A
12:20 AM39 °FPartly cloudy.8 mph93%29.18 "HgN/A
11:50 PM
Tue, Feb 9
39 °FPassing clouds.8 mph93%29.18 "HgN/A
11:20 PM37 °FOvercast.7 mph100%29.15 "HgN/A
10:50 PM37 °FPassing clouds.7 mph93%29.15 "HgN/A
10:20 PM37 °FPassing clouds.7 mph93%29.15 "HgN/A
9:20 PM37 °FPassing clouds.6 mph93%29.12 "HgN/A
8:50 PM37 °FScattered showers. Passing clouds.7 mph93%29.12 "HgN/A
8:20 PM37 °FSprinkles. Passing clouds.9 mph93%29.09 "HgN/A
7:50 PM37 °FPassing clouds.9 mph93%29.09 "HgN/A
7:20 PM37 °FPartly cloudy.9 mph93%29.09 "HgN/A
6:50 PM37 °FPartly cloudy.9 mph93%29.09 "HgN/A
6:20 PM37 °FPassing clouds.8 mph93%29.06 "HgN/A
5:50 PM37 °FPartly cloudy.8 mph93%29.06 "HgN/A
5:20 PM39 °FPartly cloudy.10 mph87%29.06 "HgN/A
4:50 PM39 °FBroken clouds.10 mph87%29.06 "HgN/A
3:50 PM43 °FScattered clouds.12 mph66%29.03 "HgN/A
3:20 PM43 °FScattered clouds.12 mph61%29.03 "HgN/A
Weather by CustomWeather, © 2016

See weather overviewHow to use our weather pages